KZR922 EDDF-UACC

Flight info

Callsign KZR922
Flight time N/A
Altitude 31000
Route SULUS6F/25C SULUS Z650 VEMUT DCT PEPIK DCT ERGOM DCT TEGRI DCT EKSUN/N0452F330 DCT RIVOS DCT DINRO N743 UDROS UM859 KARDE UN644 ROLIN DCT LAGAS/N0453F350 M747 SUBUT T916 LEYLA N161 GASBI/K0833F350 N161 MASAV N55 OGANU P574 VETUB VETUB2D
Aircraft A21N/M-SDE3FGHIRWY/LB1

Departure

Time 2026-05-04 09:42
Airport Frankfurt Main Airport (EDDF)

Arrival

Time N/A
Airport Nursultan Nazarbayev International Airport (UACC)
Time Latitude Longitude Altitude Speed Heading
2026-05-04 09:14 50.05071 8.58743 373 ft 0 kts 341°
2026-05-04 09:31 50.05068 8.58745 373 ft 2 kts 342°
2026-05-04 09:32 50.05054 8.58752 373 ft 2 kts 341°
2026-05-04 09:32 50.05040 8.58760 373 ft 2 kts 342°
2026-05-04 09:34 50.04996 8.58864 373 ft 1 kts 250°
2026-05-04 09:34 50.04998 8.58872 373 ft 0 kts 249°
2026-05-04 09:37 50.04987 8.58824 373 ft 4 kts 250°
2026-05-04 09:37 50.04972 8.58765 373 ft 6 kts 250°
2026-05-04 09:38 50.04951 8.58690 373 ft 8 kts 230°
2026-05-04 09:38 50.04892 8.58680 373 ft 10 kts 160°
2026-05-04 09:38 50.04821 8.58721 373 ft 11 kts 160°
2026-05-04 09:38 50.04747 8.58763 373 ft 8 kts 165°
2026-05-04 09:39 50.04711 8.58769 373 ft 0 kts 183°
2026-05-04 09:39 50.04708 8.58768 373 ft 2 kts 183°
2026-05-04 09:39 50.04683 8.58766 373 ft 5 kts 186°
2026-05-04 09:40 50.04637 8.58756 373 ft 9 kts 192°
2026-05-04 09:40 50.04558 8.58681 373 ft 15 kts 220°
2026-05-04 09:40 50.04483 8.58562 373 ft 15 kts 241°
2026-05-04 09:40 50.04372 8.58108 373 ft 79 kts 250°
2026-05-04 09:41 50.04106 8.56995 373 ft 139 kts 250°
2026-05-04 09:42 49.97637 8.49703 3374 ft 227 kts 141°
2026-05-04 09:43 49.96730 8.51622 3972 ft 225 kts 118°
2026-05-04 09:43 49.96048 8.53835 4495 ft 228 kts 117°
2026-05-04 09:43 49.95330 8.56104 4784 ft 242 kts 119°
2026-05-04 09:43 49.94553 8.58484 5056 ft 256 kts 114°
2026-05-04 09:44 49.94034 8.61223 5344 ft 272 kts 99°
2026-05-04 09:44 49.93872 8.64168 5827 ft 278 kts 94°
2026-05-04 09:44 49.93769 8.67164 6435 ft 279 kts 97°
2026-05-04 09:46 49.91005 8.85513 10036 ft 297 kts 75°
2026-05-04 09:46 49.91524 8.88623 10387 ft 305 kts 78°
2026-05-04 09:46 49.91970 8.91907 10613 ft 317 kts 81°
2026-05-04 09:47 49.92366 8.95328 10842 ft 329 kts 82°
2026-05-04 09:47 49.92737 8.98877 11063 ft 341 kts 82°
2026-05-04 09:49 49.95278 9.26131 13700 ft 379 kts 83°
2026-05-04 09:49 49.95643 9.30183 14114 ft 382 kts 83°
2026-05-04 09:49 49.96013 9.34325 14560 ft 385 kts 83°
2026-05-04 09:51 49.98225 9.59400 16959 ft 398 kts 83°
2026-05-04 09:51 49.98595 9.63657 17320 ft 400 kts 83°
2026-05-04 09:51 49.98963 9.67921 17679 ft 402 kts 84°
2026-05-04 09:51 49.99333 9.72218 18032 ft 404 kts 84°
2026-05-04 09:52 49.99705 9.76561 18388 ft 405 kts 84°
2026-05-04 09:52 50.00075 9.80893 18729 ft 408 kts 84°
2026-05-04 09:52 50.00449 9.85286 19047 ft 410 kts 84°
2026-05-04 09:52 50.00819 9.89660 19367 ft 413 kts 84°
2026-05-04 09:53 50.01195 9.94126 19679 ft 415 kts 84°
2026-05-04 09:53 50.01567 9.98570 19994 ft 417 kts 84°
2026-05-04 09:53 50.01939 10.03043 20304 ft 419 kts 84°
2026-05-04 09:53 50.02312 10.07538 20617 ft 421 kts 84°
2026-05-04 09:54 50.02684 10.12043 20912 ft 423 kts 84°
2026-05-04 09:54 50.03057 10.16594 21196 ft 426 kts 84°
2026-05-04 09:54 50.03430 10.21149 21463 ft 428 kts 84°
2026-05-04 09:54 50.03807 10.25782 21736 ft 430 kts 84°
2026-05-04 09:55 50.04179 10.30370 21995 ft 432 kts 84°
2026-05-04 09:55 50.04551 10.35001 22277 ft 434 kts 84°
2026-05-04 09:55 50.04929 10.39706 22550 ft 436 kts 84°
2026-05-04 09:55 50.05298 10.44348 22804 ft 438 kts 84°
2026-05-04 09:56 50.05671 10.49048 23053 ft 440 kts 84°
2026-05-04 09:56 50.06041 10.53755 23317 ft 441 kts 84°
2026-05-04 09:56 50.06413 10.58499 23562 ft 443 kts 84°
2026-05-04 09:56 50.06785 10.63265 23816 ft 445 kts 84°
2026-05-04 09:57 50.07131 10.68022 24212 ft 442 kts 88°
2026-05-04 09:57 50.07109 10.72798 24528 ft 440 kts 97°
2026-05-04 09:57 50.06600 10.77471 24750 ft 439 kts 107°
2026-05-04 09:57 50.05709 10.82026 24972 ft 439 kts 111°
2026-05-04 09:58 50.04740 10.86495 25179 ft 441 kts 111°
2026-05-04 09:58 50.03743 10.91043 25396 ft 443 kts 111°
2026-05-04 09:58 50.02759 10.95573 25613 ft 444 kts 111°
2026-05-04 10:00 49.95890 11.27701 27038 ft 453 kts 110°
2026-05-04 10:00 49.94907 11.32347 27218 ft 455 kts 110°
2026-05-04 10:02 49.88614 11.65586 28411 ft 465 kts 105°
2026-05-04 10:04 49.85259 12.00467 29661 ft 470 kts 99°
2026-05-04 10:04 49.84807 12.05491 29883 ft 470 kts 99°
2026-05-04 10:04 49.84357 12.10484 30123 ft 469 kts 99°
2026-05-04 10:04 49.83904 12.15472 30362 ft 468 kts 99°
2026-05-04 10:05 49.83450 12.20428 30593 ft 467 kts 99°
2026-05-04 10:05 49.82994 12.25403 30807 ft 467 kts 99°
2026-05-04 10:05 49.82541 12.30341 30994 ft 467 kts 99°
2026-05-04 10:06 49.81623 12.40274 31018 ft 467 kts 99°
2026-05-04 10:06 49.80295 12.50052 31022 ft 465 kts 107°
2026-05-04 10:08 49.73614 12.83402 31019 ft 464 kts 109°
2026-05-04 10:08 49.71682 12.92928 31017 ft 463 kts 109°
2026-05-04 10:09 49.69758 13.02373 31013 ft 463 kts 109°
2026-05-04 10:09 49.67825 13.11817 31014 ft 463 kts 109°
2026-05-04 10:10 49.65888 13.21240 31021 ft 463 kts 109°
2026-05-04 10:10 49.63938 13.30684 31025 ft 462 kts 109°
2026-05-04 10:11 49.61980 13.40113 31021 ft 462 kts 109°
2026-05-04 10:11 49.60014 13.49541 31017 ft 463 kts 109°
2026-05-04 10:12 49.58042 13.58949 31016 ft 463 kts 109°
2026-05-04 10:12 49.56056 13.68390 31016 ft 463 kts 109°
2026-05-04 10:13 49.54078 13.77746 31013 ft 462 kts 109°
2026-05-04 10:13 49.52078 13.87166 31014 ft 461 kts 109°
2026-05-04 10:14 49.50094 13.96456 31011 ft 457 kts 109°
2026-05-04 10:16 49.42119 14.33399 31010 ft 458 kts 109°
2026-05-04 10:16 49.40093 14.42681 31016 ft 457 kts 109°
2026-05-04 10:17 49.38071 14.51902 31019 ft 457 kts 109°
2026-05-04 10:19 49.29854 14.88957 31022 ft 458 kts 110°
2026-05-04 10:19 49.27787 14.98175 31025 ft 458 kts 110°
2026-05-04 10:20 49.25719 15.07359 31031 ft 458 kts 110°
2026-05-04 10:20 49.23645 15.16529 31024 ft 458 kts 110°
2026-05-04 10:21 49.21549 15.25761 31024 ft 457 kts 110°
2026-05-04 10:21 49.19462 15.34913 31026 ft 458 kts 110°
2026-05-04 10:22 49.16299 15.48697 31023 ft 457 kts 109°
2026-05-04 10:23 49.14199 15.57801 31024 ft 457 kts 109°
2026-05-04 10:25 49.05680 15.94353 31032 ft 457 kts 110°
2026-05-04 10:25 49.03542 16.03434 31029 ft 456 kts 110°
2026-05-04 10:26 49.01411 16.12448 31025 ft 456 kts 110°
2026-05-04 10:26 48.99261 16.21498 31020 ft 455 kts 110°
2026-05-04 10:27 48.97102 16.30551 31027 ft 455 kts 110°
2026-05-04 10:27 48.94944 16.39565 31025 ft 456 kts 110°
2026-05-04 10:28 48.92775 16.48581 31028 ft 456 kts 110°
2026-05-04 10:28 48.90581 16.57669 31024 ft 457 kts 110°
2026-05-04 10:29 48.88401 16.66656 31024 ft 457 kts 110°
2026-05-04 10:29 48.86192 16.75738 31029 ft 457 kts 110°
2026-05-04 10:30 48.83986 16.84763 31031 ft 457 kts 111°
2026-05-04 10:30 48.81771 16.93777 31027 ft 456 kts 111°
2026-05-04 10:31 48.79401 17.02650 31038 ft 455 kts 116°
2026-05-04 10:32 48.66065 17.29213 31052 ft 456 kts 131°
2026-05-04 10:33 48.61910 17.36406 31055 ft 456 kts 131°
2026-05-04 10:33 48.57750 17.43598 31058 ft 456 kts 131°
2026-05-04 10:34 48.53574 17.50804 31062 ft 456 kts 131°
2026-05-04 10:34 48.49389 17.58006 31065 ft 456 kts 131°
2026-05-04 10:35 48.45183 17.65226 31066 ft 457 kts 131°
2026-05-04 10:35 48.41018 17.72358 31067 ft 457 kts 131°
2026-05-04 10:36 48.36791 17.79577 31067 ft 458 kts 131°
2026-05-04 10:36 48.32597 17.86717 31067 ft 458 kts 131°
2026-05-04 10:37 48.28402 17.93843 31066 ft 458 kts 131°
2026-05-04 10:37 48.24189 18.00977 31071 ft 458 kts 131°
2026-05-04 10:39 48.09372 18.25922 31076 ft 460 kts 131°
2026-05-04 10:40 48.05109 18.33053 31078 ft 460 kts 131°
2026-05-04 10:40 48.00867 18.40133 31083 ft 460 kts 130°
2026-05-04 10:41 47.96615 18.47210 31087 ft 459 kts 130°
2026-05-04 10:41 47.92352 18.54287 31090 ft 459 kts 130°
2026-05-04 10:42 47.88090 18.61342 31095 ft 460 kts 130°
2026-05-04 10:42 47.83796 18.68436 31101 ft 461 kts 131°
2026-05-04 10:43 47.79514 18.75465 31102 ft 461 kts 131°
2026-05-04 10:45 47.62059 19.03277 31127 ft 461 kts 131°
2026-05-04 10:45 47.57685 19.10215 31130 ft 461 kts 131°
2026-05-04 10:46 47.53338 19.17089 31132 ft 461 kts 131°
2026-05-04 10:46 47.48940 19.24025 31132 ft 461 kts 131°
2026-05-04 10:47 47.44562 19.30908 31129 ft 461 kts 131°
2026-05-04 10:47 47.40160 19.37811 31129 ft 461 kts 131°
2026-05-04 10:49 47.22592 19.65195 31115 ft 461 kts 131°
2026-05-04 10:50 47.18187 19.72017 31113 ft 462 kts 131°
2026-05-04 10:52 47.00418 19.99352 31125 ft 461 kts 131°
2026-05-04 10:52 46.95974 20.06146 31128 ft 462 kts 131°
2026-05-04 10:54 46.78167 20.33185 31117 ft 462 kts 131°
2026-05-04 10:56 46.60316 20.60024 31122 ft 461 kts 131°
2026-05-04 10:57 46.55850 20.66697 31121 ft 461 kts 131°
2026-05-04 10:57 46.51393 20.73338 31123 ft 461 kts 131°
2026-05-04 10:58 46.46920 20.79988 31126 ft 461 kts 131°
2026-05-04 10:58 46.42440 20.86633 31128 ft 461 kts 131°
2026-05-04 10:59 46.37973 20.93240 31129 ft 461 kts 131°
2026-05-04 10:59 46.33475 20.99874 31133 ft 460 kts 131°
2026-05-04 11:00 46.29153 21.06660 31130 ft 457 kts 124°
2026-05-04 11:01 46.20462 21.35376 31137 ft 447 kts 104°
2026-05-04 11:02 46.19492 21.39566 31135 ft 446 kts 104°
2026-05-04 11:05 46.04504 22.02817 31120 ft 445 kts 105°
2026-05-04 11:06 46.02483 22.11207 31123 ft 445 kts 105°
2026-05-04 11:06 46.00465 22.19551 31118 ft 444 kts 105°
2026-05-04 11:10 45.89312 22.65091 31131 ft 441 kts 106°
2026-05-04 11:12 45.81097 22.98068 31117 ft 439 kts 106°
2026-05-04 11:12 45.79031 23.06287 31111 ft 439 kts 107°
2026-05-04 11:13 45.76962 23.14496 31109 ft 438 kts 107°
2026-05-04 11:13 45.74902 23.22631 31104 ft 438 kts 107°
2026-05-04 11:14 45.74554 23.24002 31104 ft 437 kts 107°
2026-05-04 11:16 45.64518 23.63201 31121 ft 435 kts 108°
2026-05-04 11:16 45.62422 23.71320 31123 ft 433 kts 109°
2026-05-04 11:17 45.60340 23.79341 31118 ft 432 kts 109°
2026-05-04 11:19 45.51958 24.11371 31118 ft 432 kts 110°
2026-05-04 11:19 45.49843 24.19387 31111 ft 432 kts 111°
2026-05-04 11:20 45.47730 24.27366 31104 ft 434 kts 111°
2026-05-04 11:20 45.45602 24.35366 31102 ft 435 kts 111°
2026-05-04 11:22 45.36975 24.67545 31097 ft 437 kts 112°
2026-05-04 11:23 45.34793 24.75614 31096 ft 438 kts 112°
2026-05-04 11:25 45.27162 25.03634 31088 ft 438 kts 112°
2026-05-04 11:25 45.24962 25.11650 31088 ft 438 kts 112°
2026-05-04 11:27 45.14964 25.47753 31078 ft 437 kts 112°
2026-05-04 11:28 45.12737 25.55726 31072 ft 437 kts 112°
2026-05-04 11:28 45.10511 25.63666 31065 ft 437 kts 112°
2026-05-04 11:29 45.08260 25.71666 31062 ft 436 kts 112°
2026-05-04 11:29 45.06011 25.79639 31058 ft 437 kts 112°
2026-05-04 11:33 44.90783 26.35288 31056 ft 435 kts 105°
2026-05-04 11:33 44.89238 26.43521 31054 ft 436 kts 104°
2026-05-04 11:34 44.87695 26.51727 31050 ft 436 kts 104°
2026-05-04 11:34 44.86142 26.59934 31053 ft 435 kts 104°
2026-05-04 11:35 44.84582 26.68140 31057 ft 434 kts 105°
2026-05-04 11:35 44.83012 26.76374 31058 ft 434 kts 105°
2026-05-04 11:36 44.81449 26.84525 31058 ft 435 kts 105°
2026-05-04 11:36 44.79861 26.92764 31059 ft 435 kts 104°
2026-05-04 11:37 44.78283 27.00929 31060 ft 434 kts 104°
2026-05-04 11:37 44.76691 27.09132 31060 ft 435 kts 105°
2026-05-04 11:38 44.75099 27.17297 31059 ft 435 kts 104°
2026-05-04 11:38 44.73504 27.25444 31060 ft 435 kts 104°
2026-05-04 11:39 44.71897 27.33620 31060 ft 435 kts 104°
2026-05-04 11:41 44.65676 27.61977 31055 ft 437 kts 116°
2026-05-04 11:41 44.62248 27.69058 31058 ft 440 kts 129°
2026-05-04 11:42 44.57857 27.74983 31058 ft 442 kts 137°
2026-05-04 11:42 44.53245 27.80631 31053 ft 442 kts 136°
2026-05-04 11:43 44.48614 27.86292 31048 ft 442 kts 137°
2026-05-04 11:43 44.43976 27.91957 31044 ft 443 kts 136°
2026-05-04 11:44 44.39334 27.97622 31042 ft 444 kts 136°
2026-05-04 11:44 44.34679 28.03295 31044 ft 443 kts 136°
2026-05-04 11:45 44.30046 28.08923 31038 ft 443 kts 136°
2026-05-04 11:45 44.25395 28.14564 31038 ft 443 kts 136°
2026-05-04 11:46 44.20755 28.20182 31038 ft 444 kts 136°
2026-05-04 11:46 44.16102 28.25798 31036 ft 445 kts 136°
2026-05-04 11:47 44.11424 28.31439 31038 ft 445 kts 136°
2026-05-04 11:47 44.06749 28.37061 31037 ft 445 kts 136°
2026-05-04 11:48 44.02071 28.42674 31035 ft 445 kts 136°
2026-05-04 11:48 43.97380 28.48290 31034 ft 446 kts 135°
2026-05-04 11:49 43.92693 28.53889 31034 ft 447 kts 135°
2026-05-04 11:49 43.87983 28.59504 31035 ft 447 kts 135°
2026-05-04 11:50 43.83273 28.65108 31035 ft 447 kts 136°
2026-05-04 11:50 43.78547 28.70721 31034 ft 449 kts 136°
2026-05-04 11:51 43.73839 28.76344 31036 ft 447 kts 134°
2026-05-04 11:51 43.69493 28.82417 31035 ft 444 kts 127°
2026-05-04 11:52 43.65674 28.89066 31036 ft 441 kts 122°
2026-05-04 11:52 43.62093 28.95911 31036 ft 442 kts 122°
2026-05-04 11:53 43.58498 29.02768 31034 ft 442 kts 122°
2026-05-04 11:53 43.54887 29.09634 31025 ft 442 kts 121°
2026-05-04 11:55 43.40470 29.36883 31005 ft 440 kts 121°
2026-05-04 11:56 43.38069 29.41397 31005 ft 440 kts 121°
2026-05-04 11:56 43.36836 29.43716 31005 ft 439 kts 121°
2026-05-04 11:57 43.33231 29.50478 31001 ft 438 kts 121°
2026-05-04 11:57 43.29642 29.57195 31000 ft 438 kts 121°
2026-05-04 11:58 43.26038 29.63921 30996 ft 438 kts 121°
2026-05-04 11:58 43.22451 29.70601 30990 ft 438 kts 121°
2026-05-04 11:59 43.18847 29.77300 30987 ft 437 kts 121°
2026-05-04 11:59 43.15249 29.83969 30979 ft 436 kts 121°
2026-05-04 12:00 43.11646 29.90638 30981 ft 436 kts 121°
2026-05-04 12:00 43.08049 29.97277 30981 ft 437 kts 121°
2026-05-04 12:01 43.04444 30.03918 30969 ft 437 kts 121°
2026-05-04 12:02 42.91758 30.27164 30952 ft 437 kts 121°
2026-05-04 12:03 42.88109 30.33818 30950 ft 438 kts 121°
2026-05-04 12:03 42.84476 30.40427 30945 ft 439 kts 121°
2026-05-04 12:04 42.80825 30.47054 30947 ft 438 kts 121°
2026-05-04 12:04 42.77327 30.53645 30818 ft 421 kts 115°
2026-05-04 12:05 42.74744 30.60665 31206 ft 409 kts 105°
2026-05-04 12:05 42.73098 30.68019 31355 ft 409 kts 97°
2026-05-04 12:06 42.72218 30.75671 31560 ft 411 kts 93°
2026-05-04 12:06 42.71833 30.79495 31732 ft 412 kts 93°
2026-05-04 12:06 42.71444 30.83331 31948 ft 412 kts 93°
2026-05-04 12:07 42.71050 30.87188 32172 ft 411 kts 93°
2026-05-04 12:07 42.70658 30.91013 32402 ft 410 kts 93°
2026-05-04 12:07 42.70269 30.94828 32642 ft 410 kts 93°
2026-05-04 12:07 42.69877 30.98634 32825 ft 409 kts 93°
2026-05-04 12:08 42.69085 31.06281 32871 ft 410 kts 93°
2026-05-04 12:08 42.68286 31.13927 32872 ft 409 kts 93°
2026-05-04 12:09 42.67484 31.21543 32871 ft 408 kts 93°
2026-05-04 12:09 42.66679 31.29154 32852 ft 408 kts 93°
2026-05-04 12:10 42.65868 31.36770 32862 ft 408 kts 93°
2026-05-04 12:10 42.65049 31.44406 32833 ft 408 kts 93°
2026-05-04 12:11 42.64232 31.51977 32838 ft 407 kts 93°
2026-05-04 12:11 42.63406 31.59552 32848 ft 408 kts 93°
2026-05-04 12:12 42.62573 31.67174 32837 ft 407 kts 94°
2026-05-04 12:12 42.61740 31.74755 32835 ft 408 kts 94°
2026-05-04 12:14 42.58373 32.05000 32810 ft 406 kts 94°
2026-05-04 12:15 42.57515 32.12576 32814 ft 408 kts 94°
2026-05-04 12:15 42.56649 32.20135 32804 ft 407 kts 94°
2026-05-04 12:16 42.55779 32.27691 32808 ft 407 kts 94°
2026-05-04 12:16 42.54901 32.35258 32800 ft 408 kts 94°
2026-05-04 12:17 42.54018 32.42852 32805 ft 408 kts 94°
2026-05-04 12:17 42.53132 32.50428 32827 ft 408 kts 94°
2026-05-04 12:18 42.52240 32.58004 32801 ft 407 kts 94°
2026-05-04 12:18 42.51349 32.65527 32786 ft 408 kts 95°
2026-05-04 12:19 42.50446 32.73118 32780 ft 409 kts 95°
2026-05-04 12:19 42.49543 32.80664 32764 ft 408 kts 95°
2026-05-04 12:20 42.48629 32.88251 32800 ft 408 kts 95°
2026-05-04 12:20 42.47715 32.95813 32764 ft 408 kts 95°
2026-05-04 12:21 42.46796 33.03373 32790 ft 409 kts 95°
2026-05-04 12:21 42.45867 33.10952 32782 ft 408 kts 95°
2026-05-04 12:22 42.44938 33.18480 32761 ft 408 kts 95°
2026-05-04 12:22 42.43997 33.26053 32793 ft 409 kts 95°
2026-05-04 12:23 42.43054 33.33628 32782 ft 408 kts 95°
2026-05-04 12:23 42.42102 33.41197 32779 ft 410 kts 95°
2026-05-04 12:24 42.41146 33.48752 32778 ft 409 kts 96°
2026-05-04 12:24 42.40187 33.56313 32760 ft 409 kts 96°
2026-05-04 12:25 42.39216 33.63917 32779 ft 411 kts 96°
2026-05-04 12:25 42.38244 33.71510 32783 ft 411 kts 96°
2026-05-04 12:26 42.37271 33.79085 32777 ft 412 kts 96°
2026-05-04 12:26 42.36284 33.86703 32773 ft 411 kts 97°
2026-05-04 12:27 42.35302 33.94239 32790 ft 411 kts 97°
2026-05-04 12:27 42.34306 34.01849 32791 ft 411 kts 97°
2026-05-04 12:28 42.33309 34.09440 32796 ft 412 kts 97°
2026-05-04 12:28 42.32306 34.17055 32803 ft 412 kts 97°
2026-05-04 12:29 42.31307 34.24613 32801 ft 411 kts 97°
2026-05-04 12:29 42.30292 34.32242 32803 ft 412 kts 97°
2026-05-04 12:30 42.29276 34.39818 32807 ft 411 kts 97°
2026-05-04 12:30 42.28254 34.47363 32806 ft 412 kts 97°
2026-05-04 12:31 42.27220 34.54977 32807 ft 412 kts 97°
2026-05-04 12:31 42.26196 34.62512 32814 ft 412 kts 97°
2026-05-04 12:32 42.24646 34.73954 32817 ft 413 kts 98°
2026-05-04 12:33 42.23608 34.81486 32826 ft 412 kts 98°
2026-05-04 12:33 42.22553 34.89069 32822 ft 413 kts 98°
2026-05-04 12:34 42.21492 34.96653 32816 ft 414 kts 98°
2026-05-04 12:34 42.20421 35.04272 32828 ft 414 kts 98°
2026-05-04 12:35 42.19346 35.11879 32814 ft 415 kts 99°
2026-05-04 12:35 42.18264 35.19510 32825 ft 414 kts 99°
2026-05-04 12:36 42.17180 35.27107 32813 ft 414 kts 99°
2026-05-04 12:36 42.16095 35.34679 32817 ft 415 kts 99°
2026-05-04 12:37 42.14998 35.42281 32813 ft 416 kts 99°
2026-05-04 12:37 42.13890 35.49943 32799 ft 416 kts 99°
2026-05-04 12:38 42.12785 35.57553 32814 ft 416 kts 99°
2026-05-04 12:38 42.11676 35.65148 32786 ft 417 kts 100°
2026-05-04 12:39 42.10553 35.72815 32806 ft 418 kts 100°
2026-05-04 12:39 42.09428 35.80466 32795 ft 419 kts 101°
2026-05-04 12:40 42.08292 35.88134 32826 ft 420 kts 100°
2026-05-04 12:40 42.07158 35.95762 32808 ft 420 kts 101°
2026-05-04 12:41 42.06006 36.03471 32819 ft 420 kts 101°
2026-05-04 12:41 42.04848 36.11171 32835 ft 421 kts 101°
2026-05-04 12:42 42.03684 36.18887 32819 ft 421 kts 101°
2026-05-04 12:42 42.02513 36.26599 32828 ft 422 kts 101°
2026-05-04 12:43 42.01347 36.34264 32829 ft 422 kts 101°
2026-05-04 12:43 42.00162 36.42008 32835 ft 422 kts 101°
2026-05-04 12:44 41.98978 36.49715 32833 ft 422 kts 101°
2026-05-04 12:44 41.97787 36.57425 32805 ft 424 kts 101°
2026-05-04 12:45 41.96593 36.65115 32823 ft 425 kts 102°
2026-05-04 12:45 41.95375 36.72912 32827 ft 425 kts 102°
2026-05-04 12:46 41.94168 36.80623 32829 ft 425 kts 102°
2026-05-04 12:46 41.92945 36.88402 32805 ft 426 kts 102°
2026-05-04 12:47 41.91722 36.96124 32830 ft 427 kts 102°
2026-05-04 12:47 41.90702 37.03970 32816 ft 427 kts 97°
2026-05-04 12:48 41.90285 37.11868 32840 ft 427 kts 92°
2026-05-04 12:48 41.90166 37.19805 32825 ft 429 kts 92°
2026-05-04 12:49 41.90046 37.27802 32835 ft 429 kts 92°
2026-05-04 12:49 41.89922 37.35797 32845 ft 429 kts 92°
2026-05-04 12:50 41.89793 37.43762 32842 ft 430 kts 92°
2026-05-04 12:50 41.89656 37.51759 32832 ft 431 kts 92°
2026-05-04 12:51 41.89514 37.59806 32818 ft 432 kts 92°
2026-05-04 12:51 41.89366 37.67800 32818 ft 432 kts 93°
2026-05-04 12:52 41.89212 37.75852 32801 ft 433 kts 93°
2026-05-04 12:52 41.89053 37.83915 32810 ft 433 kts 94°
2026-05-04 12:53 41.88886 37.91989 32823 ft 434 kts 94°
2026-05-04 12:53 41.88715 38.00036 32827 ft 435 kts 94°
2026-05-04 12:54 41.88536 38.08143 32826 ft 435 kts 94°
2026-05-04 12:54 41.88356 38.16230 32814 ft 436 kts 94°
2026-05-04 12:55 41.88166 38.24326 32836 ft 435 kts 94°
2026-05-04 12:55 41.87974 38.32401 32839 ft 436 kts 94°
2026-05-04 12:56 41.87773 38.40489 32813 ft 436 kts 94°
2026-05-04 12:56 41.87566 38.48606 32825 ft 437 kts 94°
2026-05-04 12:57 41.87353 38.56720 32825 ft 437 kts 94°
2026-05-04 12:57 41.87136 38.64827 32821 ft 435 kts 95°
2026-05-04 12:58 41.86914 38.72895 32824 ft 435 kts 95°
2026-05-04 12:58 41.86684 38.81003 32824 ft 435 kts 95°
2026-05-04 12:59 41.86449 38.89076 32832 ft 436 kts 96°
2026-05-04 12:59 41.86209 38.97171 32814 ft 436 kts 96°
2026-05-04 13:00 41.85964 39.05244 32846 ft 436 kts 96°
2026-05-04 13:00 41.85713 39.13336 32852 ft 437 kts 96°
2026-05-04 13:01 41.85455 39.21460 32872 ft 436 kts 96°
2026-05-04 13:01 41.85193 39.29535 32882 ft 435 kts 96°
2026-05-04 13:02 41.84926 39.37585 32851 ft 436 kts 96°
2026-05-04 13:02 41.84649 39.45726 32863 ft 436 kts 96°
2026-05-04 13:03 41.84370 39.53800 32860 ft 436 kts 96°
2026-05-04 13:03 41.84084 39.61887 32878 ft 435 kts 96°
2026-05-04 13:04 41.83795 39.69922 32882 ft 435 kts 97°
2026-05-04 13:04 41.83499 39.78010 32885 ft 435 kts 97°
2026-05-04 13:05 41.83198 39.86079 32875 ft 434 kts 97°
2026-05-04 13:05 41.82892 39.94151 32886 ft 436 kts 97°
2026-05-04 13:06 41.82581 40.02185 32876 ft 434 kts 97°
2026-05-04 13:06 41.82259 40.10297 32882 ft 436 kts 97°
2026-05-04 13:07 41.81933 40.18402 32862 ft 436 kts 97°
2026-05-04 13:07 41.81603 40.26480 32865 ft 435 kts 98°
2026-05-04 13:08 41.81264 40.34584 32880 ft 436 kts 98°
2026-05-04 13:08 41.80922 40.42642 32867 ft 437 kts 98°
2026-05-04 13:09 41.80572 40.50767 32874 ft 438 kts 98°
2026-05-04 13:09 41.80214 40.58921 32883 ft 438 kts 98°
2026-05-04 13:10 41.79851 40.67050 32888 ft 438 kts 99°
2026-05-04 13:10 41.79458 40.75183 32879 ft 437 kts 99°
2026-05-04 13:11 41.79055 40.83313 32886 ft 437 kts 99°
2026-05-04 13:11 41.78647 40.91491 32884 ft 439 kts 99°
2026-05-04 13:12 41.78236 40.99615 32861 ft 438 kts 99°
2026-05-04 13:12 41.77819 41.07776 32870 ft 440 kts 99°
2026-05-04 13:13 41.77393 41.15965 32879 ft 440 kts 99°
2026-05-04 13:13 41.76963 41.24145 32861 ft 441 kts 99°
2026-05-04 13:14 41.76528 41.32282 32873 ft 442 kts 99°
2026-05-04 13:14 41.76083 41.40533 32870 ft 443 kts 99°
2026-05-04 13:15 41.75642 41.48581 32888 ft 444 kts 99°
2026-05-04 13:15 41.75183 41.56843 32885 ft 446 kts 99°
2026-05-04 13:16 41.74717 41.65100 32875 ft 446 kts 100°
2026-05-04 13:16 41.74249 41.73372 32865 ft 446 kts 100°
2026-05-04 13:17 41.73769 41.81662 32865 ft 448 kts 100°
2026-05-04 13:17 41.73284 41.89975 32869 ft 448 kts 100°
2026-05-04 13:18 41.72794 41.98249 32869 ft 450 kts 100°
2026-05-04 13:18 41.72295 42.06589 32895 ft 451 kts 100°
2026-05-04 13:19 41.71787 42.14971 32901 ft 451 kts 100°
2026-05-04 13:19 41.71278 42.23293 32925 ft 452 kts 100°
2026-05-04 13:20 41.70758 42.31646 32913 ft 452 kts 100°
2026-05-04 13:20 41.70233 42.40030 32918 ft 454 kts 100°
2026-05-04 13:21 41.69700 42.48395 32931 ft 454 kts 100°
2026-05-04 13:21 41.69158 42.56832 32928 ft 455 kts 100°
2026-05-04 13:22 41.68612 42.65256 32928 ft 456 kts 101°
2026-05-04 13:22 41.68059 42.73634 32915 ft 455 kts 101°
2026-05-04 13:23 41.67498 42.82088 32915 ft 457 kts 101°
2026-05-04 13:23 41.66930 42.90540 32928 ft 457 kts 101°
2026-05-04 13:24 41.66356 42.98996 32921 ft 458 kts 101°
2026-05-04 13:24 41.65768 43.07518 32923 ft 460 kts 100°
2026-05-04 13:25 41.64883 43.20257 32910 ft 462 kts 101°
2026-05-04 13:25 41.64281 43.28779 32902 ft 463 kts 101°
2026-05-04 13:26 41.63671 43.37342 32909 ft 464 kts 101°
2026-05-04 13:26 41.63053 43.45914 32923 ft 465 kts 101°
2026-05-04 13:27 41.62432 43.54435 32929 ft 465 kts 101°
2026-05-04 13:27 41.61795 43.63055 32919 ft 469 kts 101°
2026-05-04 13:28 41.61151 43.71718 32932 ft 469 kts 101°
2026-05-04 13:28 41.60506 43.80320 32950 ft 470 kts 101°
2026-05-04 13:29 41.59846 43.89017 32934 ft 471 kts 101°
2026-05-04 13:29 41.59181 43.97698 32938 ft 471 kts 101°
2026-05-04 13:30 41.58512 44.06361 32933 ft 473 kts 101°
2026-05-04 13:30 41.57829 44.15076 32915 ft 473 kts 101°
2026-05-04 13:31 41.56792 44.23666 32887 ft 469 kts 108°
2026-05-04 13:31 41.55032 44.31970 32877 ft 465 kts 114°
2026-05-04 13:32 41.53000 44.40127 32855 ft 465 kts 114°
2026-05-04 13:32 41.50952 44.48339 32857 ft 465 kts 114°
2026-05-04 13:33 41.48930 44.56443 32862 ft 465 kts 114°
2026-05-04 13:33 41.46883 44.64636 32851 ft 465 kts 114°
2026-05-04 13:34 41.44839 44.72797 32851 ft 466 kts 114°
2026-05-04 13:34 41.42797 44.80923 32835 ft 466 kts 115°
2026-05-04 13:35 41.39705 44.93168 32849 ft 467 kts 114°
2026-05-04 13:36 41.37626 45.01379 32848 ft 467 kts 114°
2026-05-04 13:36 41.35554 45.09518 32853 ft 469 kts 115°
2026-05-04 13:37 41.33460 45.17697 32854 ft 469 kts 114°
2026-05-04 13:37 41.31357 45.25886 32843 ft 470 kts 115°
2026-05-04 13:38 41.29248 45.34077 32836 ft 470 kts 115°
2026-05-04 13:38 41.27127 45.42297 32840 ft 470 kts 115°
2026-05-04 13:39 41.25003 45.50487 32832 ft 471 kts 115°
2026-05-04 13:39 41.22868 45.58703 32835 ft 471 kts 115°
2026-05-04 13:40 41.20736 45.66873 32835 ft 472 kts 115°
2026-05-04 13:40 41.18580 45.75064 32844 ft 472 kts 115°
2026-05-04 13:41 41.16406 45.83295 32858 ft 474 kts 115°
2026-05-04 13:41 41.15310 45.87440 33149 ft 471 kts 115°
2026-05-04 13:41 41.14241 45.91478 33543 ft 467 kts 115°
2026-05-04 13:42 41.12083 45.99608 34125 ft 463 kts 115°
2026-05-04 13:42 41.11015 46.03627 34339 ft 463 kts 115°
2026-05-04 13:42 41.09980 46.07509 34483 ft 463 kts 115°
2026-05-04 13:42 41.08904 46.11537 34646 ft 462 kts 115°
2026-05-04 13:43 41.07843 46.15506 34768 ft 463 kts 115°
2026-05-04 13:43 41.06753 46.19577 34775 ft 463 kts 115°
2026-05-04 13:43 41.04603 46.27586 34791 ft 463 kts 115°
2026-05-04 13:44 41.02443 46.35648 34792 ft 464 kts 115°
2026-05-04 13:44 41.00304 46.43659 34801 ft 464 kts 115°
2026-05-04 13:45 40.98156 46.51676 34788 ft 464 kts 115°
2026-05-04 13:45 40.96007 46.59671 34784 ft 464 kts 115°
2026-05-04 13:46 40.93842 46.67689 34777 ft 465 kts 116°
2026-05-04 13:46 40.91950 46.75877 34780 ft 470 kts 107°
2026-05-04 13:47 40.91243 46.84495 34781 ft 479 kts 95°
2026-05-04 13:47 40.91894 46.93306 34785 ft 486 kts 82°
2026-05-04 13:48 40.93481 47.01962 34787 ft 488 kts 79°
2026-05-04 13:48 40.95148 47.10656 34796 ft 488 kts 79°
2026-05-04 13:49 40.96769 47.19336 34817 ft 489 kts 79°
2026-05-04 13:49 40.98369 47.28050 34825 ft 489 kts 79°
2026-05-04 13:50 40.99949 47.36718 34837 ft 488 kts 79°
2026-05-04 13:50 41.01531 47.45439 34845 ft 488 kts 79°